User: anonymous   Login
Location: Unspecified
(0.0000°N, 0.0000°E)
Time: 05:15:26
(UTC+02:00)
Language:

Iridium 4 Rocket - Orbit

View from above orbital plane
View from above orbital plane
View from above satellite
View from above satellite

Ground track
Ground track

The orbit data is extracted from the following two-line orbital elements,

1 24797U 97020F   17173.53850531 +.00000117 +00000-0 +20661-4 0  9994
2 24797 086.8946 351.4145 0223476 299.8126 089.7115 14.43981714058686
Epoch (UTC): 22 June 2017 12:55:26
Eccentricity: 0.0223476
inclination: 86.8946°
perigee height: 586 km
apogee height: 904 km
right ascension of ascending node: 351.4145°
argument of perigee: 299.8126°
revolutions per day: 14.43981714
mean anomaly at epoch: 89.7115°
orbit number at epoch: 5868

The dashed part of the orbit path shows where the satellite is in the earth's shadow,  

DLR